Vertical_Velocity
0 3 -2 -5 -3 -0 0 2 1 -4 -7 8 -0 -2 -5 -4 0 -2 -3 -0 -2 -2 -4 -1 1 -2 -1 -2 -4 3 -4 -1 6 6 -1 1 -10 -2 -2 -5 1 -1 1 1
2 -1 -5 -0 0 1 1 1 -3 -4 -1 10 -2 -13 -5 -1 -2 2 2 -5 -3 -2 4 3 1 3 1 -1 1 1 1 5 1 1 5 -0 -3 -5 5 13 2 -3 0 -1
-2 -3 -0 0 0 2 -0 1 -1 4 -3 -2 5 -12 -2 -7 -1 -1 3 3 -2 1 -2 -6 -2 1 0 2 1 2 2 0 3 4 6 9 7 12 4 -5 -6 -13 -2 5
-2 -0 -1 1 -0 2 2 -2 1 1 2 1 1 -17 -7 -0 -0 -2 -1 -2 1 0 -5 -4 -3 -5 -3 0 1 1 -1 -0 1 10 4 -2 -4 -10 -3 -10 5 -1 0 1
-3 1 0 1 -3 -0 -3 1 2 1 1 6 -3 7 -19 -0 -3 -1 -1 0 1 1 -1 -3 -4 -3 -4 -6 -4 -2 -2 -1 4 4 -1 5 1 3 4 -1 1 5 3 2
-0 -0 1 -2 -0 0 0 -1 -0 0 2 6 -4 6 -13 0 3 -2 -3 -1 1 -3 -2 -3 -0 1 -1 -0 -1 -3 -3 -0 4 0 5 -3 -0 7 1 2 -1 -3 3 4
-1 -1 0 -1 1 0 -2 -3 -2 3 6 -4 0 -0 -4 1 1 4 2 -0 -2 -1 -4 -1 -7 -4 -1 -1 -0 -6 1 -1 2 1 1 2 0 4 6 8 9 6 -0 -9
0 2 0 -0 -2 -1 -0 0 -1 -1 1 -1 -2 -4 6 2 1 1 1 3 1 -0 0 0 -4 -2 0 -2 -0 -1 5 2 3 3 1 5 4 0 4 6 2 -0 -5 3
0 -3 -2 1 0 -1 1 3 -6 6 0 10 -4 2 8 -1 -3 -3 -2 -3 -1 -3 -4 -4 -4 1 -2 -3 -5 0 4 5 3 7 -1 3 4 2 3 4 7 -3 2 -3
0 -0 -2 -5 1 -0 -1 -1 5 3 1 0 -2 -1 -1 -5 -3 -2 -4 -1 -2 -2 -5 -3 -5 -1 1 6 -5 4 4 1 1 7 4 1 3 0 1 2 -2 -2 4 0
-1 3 -2 2 0 -2 3 1 3 3 3 3 1 1 5 3 3 2 1 1 1 -2 -1 -2 -5 2 -7 12 2 7 4 2 2 2 2 2 4 3 4 6 6 4 2 6
-0 -1 0 -7 -4 1 -1 -1 -1 2 0 -0 4 -0 2 2 2 1 1 1 1 2 0 -4 -1 -0 8 -2 6 11 14 0 3 -2 4 2 5 5 4 6 3 0 7 3
-1 0 -1 3 3 2 -1 0 0 1 3 -5 4 4 1 -1 -2 0 1 -0 -0 -0 -2 0 -6 -0 -8 -7 12 8 8 3 3 0 5 2 5 -1 8 3 5 6 6 3
-1 0 -1 -2 -1 2 -0 -1 -1 4 4 -4 1 2 -3 -1 1 -2 -2 -0 -1 1 1 1 1 6 14 16 3 -5 -4 6 -7 3 1 2 7 8 2 7 8 5 5 8
-2 0 3 -3 -1 2 0 0 -0 2 -8 4 3 -1 3 3 3 5 4 -0 -3 -2 -3 -0 -3 0 5 5 1 2 8 7 4 9 -2 -1 2 9 7 2 4 6 3 3
1 -2 0 -2 -1 1 -1 -0 -0 0 1 -0 -1 3 2 2 0 -4 1 -2 -0 -0 1 2 4 4 -0 2 5 2 4 1 -5 -5 5 6 3 8 4 10 0 7 3 3
-0 0 0 -1 -1 1 0 3 1 1 -0 1 0 3 0 1 -0 1 -1 1 1 1 -0 -1 2 1 4 -1 0 -2 4 8 3 6 0 7 4 8 -15 14 10 8 9 2
0 0 0 -1 3 3 8 1 -2 -4 2 0 0 1 -0 0 3 1 0 3 1 1 -1 2 4 2 1 5 0 8 4 2 1 -2 2 -6 -8 18 11 -7 2 1 -11 7
0 -0 0 3 0 5 5 1 1 2 5 1 0 1 1 1 3 -1 1 2 2 2 2 3 5 5 3 -3 -1 3 -1 -1 -3 -1 -1 1 -1 -1 -7 -2 1 -12 2 4
1 1 1 2 -1 -1 3 1 0 1 2 1 -0 0 0 1 -1 3 0 1 2 5 0 -0 -0 6 2 -3 2 2 -1 -3 -5 -3 1 4 1 2 -2 1 -8 10 4 -3
-0 -0 -1 0 0 3 2 -1 0 7 6 1 -1 1 0 -3 3 -0 3 2 3 2 0 4 -2 -0 -1 0 1 -2 3 -4 4 3 3 -1 -1 -5 -3 4 -9 -1 -0 4
0 1 0 1 0 5 1 3 6 4 5 -2 0 3 -4 -2 1 0 1 1 -0 -2 -1 -1 -1 -2 0 1 1 -2 -3 5 3 4 2 -1 -1 1 -1 -3 1 0 0 -1
3 3 -1 4 4 3 3 1 3 0 -5 1 -5 1 -1 -2 -2 -2 -1 0 -1 1 3 -0 -2 1 0 -3 -0 -1 1 2 3 0 -2 -1 3 3 1 0 -1 -1 1 -1
1 0 -2 3 4 2 -0 1 0 2 -1 -1 -1 0 2 -4 1 -1 0 -2 -2 -1 -1 2 3 -3 -2 0 0 -2 1 1 -2 -4 -2 -0 -1 1 1 0 1 1 -1 -0
0 -0 -1 3 4 1 1 1 -1 -0 -0 -1 1 2 -0 0 -1 1 -1 -0 -1 -3 -2 0 1 -1 -1 -1 -0 1 0 -0 -2 -1 -0 -3 -4 -5 -4 -6 -6 -4 -4 -3
0 -2 -1 -1 -3 -3 0 1 0 -2 -1 -0 -1 -1 1 2 -1 2 -1 -0 1 1 -1 0 2 1 -3 -3 -3 -1 -2 -2 -0 -3 -5 -5 -3 -3 -1 0 0 1 -1 0
Height
1487 1487 1485 1484 1487 1487 1490 1490 1489 1488 1484 1484 1475 1457 1459 1467 1467 1463 1459 1456 1451 1446 1449 1446 1445 1444 1444 1442 1441 1440 1440 1441 1444 1444 1443 1446 1449 1456 1460 1464 1468 1471 1476 1479
1486 1484 1483 1485 1488 1488 1487 1487 1486 1484 1482 1480 1471 1450 1446 1459 1461 1457 1454 1452 1447 1440 1441 1440 1437 1436 1435 1433 1432 1432 1431 1432 1432 1435 1435 1437 1441 1445 1451 1455 1459 1464 1468 1472
1480 1478 1480 1483 1485 1486 1486 1485 1484 1482 1480 1478 1472 1446 1443 1448 1451 1452 1453 1453 1448 1446 1442 1438 1434 1431 1428 1426 1424 1422 1422 1423 1423 1425 1429 1430 1433 1436 1438 1441 1448 1454 1458 1462
1477 1478 1477 1481 1482 1483 1483 1480 1478 1480 1480 1474 1474 1459 1436 1442 1446 1452 1454 1453 1451 1446 1443 1439 1434 1428 1423 1419 1416 1414 1412 1413 1414 1416 1417 1419 1421 1421 1423 1430 1437 1443 1448 1453
1475 1477 1479 1479 1476 1481 1478 1479 1479 1477 1476 1477 1469 1475 1421 1435 1444 1454 1454 1451 1448 1444 1439 1436 1432 1427 1422 1416 1409 1405 1403 1402 1403 1405 1407 1409 1412 1412 1419 1422 1427 1433 1438 1445
1476 1478 1477 1475 1475 1478 1478 1478 1475 1474 1476 1475 1462 1463 1430 1446 1456 1457 1455 1452 1449 1446 1438 1432 1429 1424 1418 1412 1405 1400 1396 1392 1391 1393 1396 1398 1401 1405 1409 1411 1415 1421 1428 1434
1479 1476 1476 1476 1476 1479 1478 1477 1477 1474 1475 1461 1458 1456 1442 1456 1458 1460 1456 1453 1450 1443 1437 1430 1424 1418 1413 1406 1400 1395 1390 1384 1381 1381 1384 1388 1392 1399 1401 1403 1406 1412 1418 1424
1481 1474 1475 1476 1475 1478 1478 1481 1478 1476 1461 1454 1454 1448 1442 1458 1460 1459 1457 1455 1451 1444 1436 1429 1425 1419 1411 1402 1396 1390 1384 1378 1375 1374 1374 1379 1384 1390 1394 1397 1401 1406 1411 1417
1480 1481 1475 1474 1476 1478 1480 1479 1473 1473 1468 1469 1451 1447 1458 1458 1459 1458 1458 1455 1449 1443 1437 1431 1425 1417 1409 1401 1393 1385 1379 1374 1370 1368 1369 1373 1379 1383 1386 1391 1397 1401 1407 1412
1479 1483 1475 1473 1473 1472 1471 1471 1475 1473 1474 1462 1436 1435 1437 1460 1460 1460 1459 1458 1452 1446 1439 1431 1423 1415 1408 1400 1391 1383 1375 1369 1366 1364 1365 1369 1374 1378 1383 1388 1391 1396 1400 1406
1479 1482 1476 1475 1470 1468 1473 1472 1469 1467 1462 1450 1439 1446 1467 1470 1470 1468 1464 1461 1454 1449 1440 1432 1424 1416 1408 1399 1389 1380 1373 1367 1363 1361 1363 1366 1371 1376 1380 1382 1387 1391 1395 1399
1479 1482 1478 1470 1467 1467 1467 1465 1470 1471 1456 1459 1455 1450 1473 1475 1473 1471 1468 1464 1458 1451 1443 1435 1423 1413 1404 1393 1386 1379 1367 1364 1362 1361 1362 1366 1369 1374 1377 1380 1384 1389 1393 1397
1478 1478 1475 1465 1468 1462 1462 1464 1466 1466 1465 1457 1454 1455 1474 1476 1475 1473 1469 1463 1458 1452 1444 1436 1427 1414 1401 1397 1388 1376 1371 1367 1366 1364 1362 1363 1367 1371 1376 1378 1382 1388 1392 1397
1475 1476 1474 1461 1453 1459 1465 1464 1463 1462 1453 1440 1451 1465 1474 1475 1474 1473 1469 1466 1460 1453 1445 1434 1424 1418 1411 1398 1387 1379 1377 1373 1370 1367 1366 1365 1368 1370 1371 1376 1380 1385 1392 1398
1474 1472 1470 1464 1460 1463 1464 1464 1464 1465 1446 1441 1462 1470 1476 1478 1478 1476 1474 1467 1460 1454 1446 1437 1430 1419 1408 1401 1397 1389 1385 1378 1373 1370 1370 1369 1372 1372 1373 1375 1380 1384 1390 1393
1472 1467 1468 1464 1451 1457 1466 1466 1464 1466 1459 1462 1469 1474 1481 1482 1481 1478 1474 1470 1465 1460 1454 1447 1438 1427 1418 1409 1402 1397 1391 1388 1384 1378 1378 1376 1376 1375 1375 1378 1381 1386 1389 1391
1467 1466 1463 1453 1456 1458 1459 1468 1469 1470 1468 1463 1459 1475 1481 1483 1482 1482 1479 1475 1471 1466 1459 1452 1445 1437 1430 1422 1415 1407 1401 1396 1391 1387 1383 1385 1382 1384 1380 1380 1381 1383 1388 1389
1462 1463 1461 1453 1458 1447 1468 1472 1472 1473 1476 1474 1475 1479 1482 1485 1486 1485 1483 1480 1475 1470 1464 1458 1452 1446 1438 1431 1424 1420 1413 1406 1400 1397 1394 1390 1392 1391 1387 1387 1383 1385 1391 1388
1458 1459 1456 1445 1451 1466 1467 1471 1471 1470 1479 1481 1479 1480 1482 1485 1485 1486 1486 1483 1480 1475 1470 1465 1459 1454 1446 1439 1435 1429 1423 1418 1412 1406 1404 1403 1398 1396 1396 1395 1391 1398 1396 1394
1452 1453 1455 1449 1446 1448 1463 1472 1474 1474 1471 1481 1480 1480 1480 1483 1480 1490 1489 1485 1482 1478 1473 1470 1464 1459 1453 1447 1444 1439 1433 1429 1423 1421 1419 1416 1412 1409 1408 1404 1402 1400 1403 1401
1449 1450 1447 1441 1446 1461 1471 1473 1473 1466 1476 1481 1481 1482 1482 1485 1491 1493 1490 1487 1485 1481 1478 1475 1470 1464 1460 1456 1452 1446 1442 1436 1437 1435 1431 1426 1422 1419 1417 1416 1415 1414 1410 1409
1454 1455 1454 1450 1448 1453 1475 1471 1467 1476 1480 1482 1484 1484 1485 1489 1491 1493 1491 1489 1487 1485 1483 1479 1474 1470 1467 1463 1459 1455 1450 1450 1447 1444 1439 1436 1434 1432 1430 1428 1426 1424 1422 1419
1454 1461 1459 1467 1467 1475 1475 1474 1475 1477 1479 1483 1484 1487 1488 1489 1492 1494 1493 1491 1490 1489 1486 1484 1481 1477 1473 1470 1466 1462 1460 1457 1454 1451 1448 1444 1441 1439 1437 1434 1432 1429 1426 1424
1461 1462 1463 1468 1476 1477 1478 1478 1478 1479 1480 1484 1487 1488 1490 1489 1492 1493 1494 1494 1494 1492 1490 1488 1484 1481 1478 1475 1471 1468 1466 1463 1459 1456 1452 1450 1447 1445 1441 1438 1437 1434 1433 1431
1462 1463 1465 1472 1476 1478 1480 1480 1480 1481 1483 1486 1489 1490 1491 1491 1493 1494 1495 1497 1497 1496 1495 1492 1488 1485 1482 1480 1477 1474 1471 1468 1465 1462 1459 1455 1453 1450 1448 1445 1444 1442 1441 1439
1462 1463 1464 1461 1466 1470 1477 1480 1482 1483 1486 1488 1489 1490 1492 1494 1495 1497 1497 1499 1499 1498 1497 1495 1492 1489 1487 1485 1482 1478 1475 1473 1470 1466 1464 1462 1461 1459 1456 1454 1452 1450 1447 1445